Monday, July 28, 2014

SilverExpress Flight Center

image image image image
* * * *
Text Size

FAA Approved Pilot school in Miami Florida for Professional pilot training

Silver Express Flight Center

Silver Express has been South Florida's premier flight training academy for over 25 years. Whether you are pursuing a career in aviation or simply want to make a dream come true, Silver Express has the aircraft, Instructors and experience to make it happen for you.

Silver Express students fly the best airplanes from top manufacturers - and have access to state of the art flight simulators to expand their knowledge and skills.

 

Become a pilot where the professionals train.

 


 Boeing releases the 2012 Pilot Hiring Forecast projecting 460,000 new pilot jobs through 2031 with 69,000 in North America.

Read the full article

boeing

    

 

 

airplane-cockpit-1920x1200

 Airline Pilots earn over $150,000 per year. How much will you earn in your career?

 Miami: (305)255-8753 Toll Free (US) (866)772-9361
Kendal Tamiami Executive Airport 14569 sw 127 St Miami FL 33186

miami pilot schools 33186,professional pilot training in miami

Aviation WX

[source: ADDS]
METAR
KTMB 281753Z 33005KT 10SM SCT050 35/21 A3007 RMK AO2 SLP182 T03500206 10356 20283 58007 =
TAF
KTMB 281720Z 2818/2918 21005KT P6SM SCT030 SCT250 FM282000 22008KT P6SM SCT035 SCT250 FM290000 24003KT P6SM FEW030 SCT250 FM290600 25003KT P6SM SKC =